Change the Weather History Date:

Saturday, October 13, 2012

  Actual Average (KMRB) Record (KMRB)
Temperature  
Mean Temperature 46 °F 55 °F  
Max Temperature 60 °F 66 °F 90 °F (1954)
Min Temperature 32 °F 43 °F 27 °F (1957)
Degree Days  
Heating Degree Days 19 11  
Month to date heating degree days 113  
Since 1 July heating degree days 204  
Cooling Degree Days 0 0  
Month to date cooling degree days 8  
Year to date cooling degree days 893  
Moisture  
Dew Point 37 °F    
Average Humidity 71    
Maximum Humidity 100    
Minimum Humidity 42    
Precipitation  
Precipitation 0.00 in 0.10 in 3.50 in (1990)
Month to date precipitation 1.32  
Year to date precipitation 31.13  
Sea Level Pressure  
Sea Level Pressure 30.35 in    
Wind  
Wind Speed 1 mph (SE)    
Max Wind Speed 7 mph    
Max Gust Speed -    
Visibility 10 miles    
Events      
T = Trace of Precipitation, MM = Missing Value Source: NWS Daily Summary

Daily Weather History Graph

Daily Weather History Graph

Search for Another Location

Airport or City:

Trip Planner

Search our weather history database for the weather conditions in past years. The results will help you decide how hot, cold, wet, or windy it might be!

Date:

Astronomy

Oct. 13, 2012 Rise Set
Actual Time 7:23 AM EDT 6:38 PM EDT
Civil Twilight 6:56 AM EDT 7:05 PM EDT
Nautical Twilight 6:25 AM EDT 7:36 PM EDT
Astronomical Twilight 5:54 AM EDT 8:07 PM EDT
Moon 5:11 AM EDT (10/13) 5:20 PM EDT (10/13)
Length of Visible Light 12h 08m
Length of Day
11h 14m
Waning Crescent, 5% of the Moon is Illuminated
Oct 13
Waning Crescent
Oct 15
New
Oct 21
First Quarter
Oct 29
Full
Nov 6
Last Quarter

Hourly Weather History & Observations

Time (EDT) Temp. Windchill Dew Point Humidity Pressure Visibility Wind Dir Wind Speed Gust Speed Precip Events Conditions
12:13 AM 35.6 °F - 32.0 °F 87% 30.47 in 10.0 mi Calm Calm - N/A   Clear
12:34 AM 33.8 °F - 33.8 °F 100% 30.48 in 10.0 mi Calm Calm - N/A   Clear
12:55 AM 33.8 °F - 33.8 °F 100% 30.48 in 10.0 mi Calm Calm - N/A   Clear
1:17 AM 32.0 °F - 32.0 °F 100% 30.48 in 10.0 mi Calm Calm - N/A   Clear
1:38 AM 32.0 °F - 32.0 °F 100% 30.48 in 10.0 mi Calm Calm - N/A   Clear
1:59 AM 32.0 °F - 32.0 °F 100% 30.49 in 10.0 mi Calm Calm - N/A   Clear
2:21 AM 32.0 °F - 32.0 °F 100% 30.49 in 10.0 mi Calm Calm - N/A   Clear
2:42 AM 32.0 °F - 32.0 °F 100% 30.49 in 10.0 mi Calm Calm - N/A   Clear
3:03 AM 32.0 °F - 32.0 °F 100% 30.48 in 10.0 mi Calm Calm - N/A   Clear
3:24 AM 32.0 °F - 32.0 °F 100% 30.49 in 10.0 mi Calm Calm - N/A   Clear
3:26 PM 60.8 °F - 37.4 °F 42% 30.35 in 10.0 mi East 5.8 mph - N/A   Unknown
3:47 PM 60.8 °F - 37.4 °F 42% 30.35 in 10.0 mi ESE 5.8 mph - N/A   Clear
4:09 PM 60.8 °F - 37.4 °F 42% 30.34 in 10.0 mi ENE 3.5 mph - N/A   Clear
4:30 PM 60.8 °F - 37.4 °F 42% 30.33 in 10.0 mi SE 3.5 mph - N/A   Clear
4:51 PM 60.8 °F - 37.4 °F 42% 30.32 in 10.0 mi ESE 6.9 mph - N/A   Clear
5:12 PM 60.8 °F - 39.2 °F 45% 30.32 in 10.0 mi ESE 3.5 mph - N/A   Clear
5:33 PM 59.0 °F - 39.2 °F 48% 30.31 in 10.0 mi ESE 4.6 mph - N/A   Clear
5:55 PM 59.0 °F - 41.0 °F 51% 30.31 in 10.0 mi ESE 3.5 mph - N/A   Clear
6:16 PM 55.4 °F - 39.2 °F 54% 30.31 in 10.0 mi ESE 4.6 mph - N/A   Clear
6:37 PM 55.4 °F - 39.2 °F 54% 30.31 in 10.0 mi SE 3.5 mph - N/A   Clear
6:58 PM 53.6 °F - 39.2 °F 58% 30.31 in 10.0 mi Calm Calm - N/A   Clear
7:20 PM 53.6 °F - 37.4 °F 54% 30.31 in 10.0 mi South 5.8 mph - N/A   Clear
7:41 PM 53.6 °F - 39.2 °F 58% 30.30 in 10.0 mi SSE 3.5 mph - N/A   Clear
8:02 PM 51.8 °F - 37.4 °F 58% 30.30 in 10.0 mi South 3.5 mph - N/A   Clear
8:23 PM 50.0 °F - 37.4 °F 62% 30.30 in 10.0 mi SW 3.5 mph - N/A   Clear
8:44 PM 51.8 °F - 37.4 °F 58% 30.30 in 10.0 mi WSW 3.5 mph - N/A   Clear
9:06 PM 50.0 °F - 39.2 °F 66% 30.29 in 10.0 mi Calm Calm - N/A   Clear
9:27 PM 50.0 °F - 39.2 °F 66% 30.29 in 10.0 mi Calm Calm - N/A   Clear
9:48 PM 50.0 °F - 39.2 °F 66% 30.28 in 10.0 mi Calm Calm - N/A   Clear
10:09 PM 48.2 °F - 39.2 °F 71% 30.27 in 10.0 mi Calm Calm - N/A   Clear
10:31 PM 46.4 °F - 42.8 °F 87% 30.27 in 10.0 mi Calm Calm - N/A   Clear
10:52 PM 46.4 °F - 41.0 °F 81% 30.26 in 10.0 mi Calm Calm - N/A   Clear
11:13 PM 46.4 °F 45.2 °F 41.0 °F 81% 30.26 in 10.0 mi NW 3.5 mph - N/A   Clear
11:35 PM 44.6 °F - 41.0 °F 87% 30.25 in 10.0 mi Calm Calm - N/A   Clear
11:56 PM 46.4 °F - 41.0 °F 81% 30.24 in 10.0 mi Calm Calm - N/A   Clear